FW7266 Weather Reports


time (UTC)temp
C
wind
direction
speed
KPH
gust
KPH
rain 1hr
cm
rain 24hr
cm
rain mn
cm
humidity
%
barometer
mb
20240418174534 5 294 12.9 32.2 0.00 0.00 0.00 61 1017.3
20240418173034 5 287 16.1 35.4 0.00 0.00 0.00 62 1017.3
20240418171539 5 275 17.7 33.8 0.00 0.00 0.00 61 1017.3
20240418170035 5 289 11.3 33.8 0.00 0.00 0.00 61 1017.1
20240418164532 5 258 16.1 35.4 0.00 0.00 0.00 61 1017.2
20240418163043 5 289 14.5 33.8 0.00 0.00 0.00 64 1017.4
20240418161540 5 274 16.1 37.0 0.00 0.00 0.00 62 1017.3
20240418160034 5 284 11.3 33.8 0.00 0.00 0.00 62 1017.4
20240418154541 5 263 12.9 33.8 0.00 0.00 0.00 64 1017.2
20240418153032 5 239 20.9 37.0 0.00 0.00 0.00 62 1017.1
20240418151533 5 297 14.5 38.6 0.00 0.00 0.00 64 1017.4
20240418150033 5 296 17.7 30.6 0.00 0.00 0.00 66 1017.3
20240418144537 5 224 12.9 30.6 0.00 0.00 0.00 65 1017.1
20240418143033 5 245 16.1 32.2 0.00 0.00 0.00 65 1017.1
20240418141536 5 288 12.9 37.0 0.00 0.00 0.00 68 1017.1
20240418140037 4 279 9.7 29.0 0.00 0.00 0.00 70 1017.2
20240418134535 4 269 11.3 25.7 0.00 0.00 0.00 73 1017.2
20240418133038 4 296 12.9 24.1 0.00 0.00 0.00 73 1017.4
20240418131538 3 277 9.7 22.5 0.00 0.00 0.00 76 1017.2
20240418130037 3 245 6.4 19.3 0.00 0.00 0.00 80 1017.0
20240418124538 3 240 6.4 17.7 0.00 0.00 0.00 82 1017.3
20240418123036 2 252 8.0 17.7 0.00 0.00 0.00 82 1017.2
20240418121536 2 243 4.8 17.7 0.00 0.00 0.00 82 1016.8
20240418120044 2 242 6.4 16.1 0.00 0.00 0.00 82 1016.8
20240418114546 2 261 8.0 14.5 0.00 0.00 0.00 80 1016.9
20240418113039 3 240 6.4 14.5 0.00 0.00 0.00 80 1016.6
20240418111538 3 235 4.8 11.3 0.00 0.00 0.00 78 1016.3
20240418110034 3 242 4.8 12.9 0.00 0.00 0.00 77 1016.5
20240418104534 3 252 1.6 8.0 0.00 0.00 0.00 76 1015.8
20240418103033 4 255 4.8 14.5 0.00 0.00 0.00 73 1015.7
20240418101545 4 298 3.2 16.1 0.00 0.00 0.00 72 1015.5
20240418100038 5 267 9.7 20.9 0.00 0.00 0.00 71 1015.7
20240418094542 5 277 6.4 17.7 0.00 0.05 0.00 73 1015.4
20240418093030 5 266 6.4 14.5 0.00 0.05 0.00 77 1016.1
20240418091537 5 244 4.8 14.5 0.00 0.05 0.00 80 1015.8
20240418090046 5 280 6.4 12.9 0.00 0.05 0.00 80 1015.7
20240418084537 5 254 3.2 9.7 0.00 0.18 0.00 80 1015.2
20240418083036 5 263 1.6 12.9 0.00 0.18 0.00 78 1014.9
20240418081535 5 266 3.2 16.1 0.00 0.18 0.00 79 1015.4
20240418080035 6 265 3.2 11.3 0.00 0.18 0.00 80 1015.0
20240418074541 6 243 3.2 9.7 0.00 0.18 0.00 81 1014.5
20240418073037 6 0 4.8 11.3 0.00 0.18 0.00 81 1014.9
20240418071550 6 269 3.2 9.7 0.00 0.18 0.00 83 1014.8
20240418070050 6 274 1.6 6.4 0.00 0.18 0.00 83 1014.8
20240418064540 6 298 0.0 4.8 0.00 0.18 0.00 82 1014.3
20240418063038 6 298 0.0 11.3 0.00 0.18 0.00 81 1014.1
20240418061541 6 297 3.2 11.3 0.00 0.18 0.00 82 1014.3
20240418060101 6 303 3.2 11.3 0.00 0.18 0.00 84 1014.7
20240418054531 6 281 1.6 9.7 0.00 0.18 0.00 85 1014.2
20240418053042 7 267 3.2 11.3 0.00 0.18 0.00 84 1014.3
20240418051541 6 0 3.2 12.9 0.00 0.18 0.00 86 1014.1
20240418050058 5 281 0.0 3.2 0.00 0.18 0.00 90 1014.1
20240418044536 5 0 0.0 0.0 0.00 0.18 0.18 89 1013.9
20240418043042 6 0 0.0 0.0 0.00 0.18 0.18 87 1013.5
20240418041539 6 0 0.0 0.0 0.00 0.18 0.18 87 1013.7
20240418040043 6 0 0.0 6.4 0.00 0.18 0.18 87 1013.7
20240418034536 5 280 1.6 4.8 0.00 0.18 0.18 89 1014.0
20240418033037 5 280 1.6 3.2 0.00 0.18 0.18 87 1014.2
20240418031545 6 0 0.0 3.2 0.00 0.18 0.18 83 1013.8
20240418030035 6 280 3.2 9.7 0.00 0.18 0.18 82 1013.9
20240418024538 7 0 0.0 0.0 0.00 0.18 0.18 78 1013.4
20240418023044 7 0 0.0 3.2 0.00 0.18 0.18 77 1013.7
20240418021543 8 297 3.2 11.3 0.00 0.18 0.18 75 1013.8
20240418020037 8 313 1.6 8.0 0.00 0.18 0.18 73 1013.5
20240418014540 8 331 6.4 14.5 0.00 0.23 0.18 73 1013.1
20240418013042 9 300 1.6 11.3 0.00 0.23 0.18 72 1013.1
20240418011539 9 303 4.8 16.1 0.00 0.23 0.18 72 1012.8
20240418010033 10 298 9.7 20.9 0.00 0.23 0.18 72 1012.6
20240418004534 10 288 8.0 19.3 0.00 0.23 0.18 71 1011.9
20240418003038 10 307 9.7 22.5 0.00 0.23 0.18 70 1011.7
20240418001539 10 293 9.7 29.0 0.00 0.23 0.18 70 1011.8
20240418000037 10 309 12.9 20.9 0.00 0.23 0.18 69 1011.6
20240417234530 11 265 9.7 24.1 0.00 0.23 0.18 70 1011.5
20240417233036 11 305 8.0 25.7 0.00 0.23 0.18 69 1011.3
20240417231535 11 336 11.3 32.2 0.00 0.23 0.18 69 1011.3
20240417230033 10 316 16.1 41.8 0.00 0.23 0.18 71 1011.1
20240417224543 10 317 11.3 32.2 0.00 0.23 0.18 73 1011.0
20240417223037 10 306 12.9 30.6 0.00 0.23 0.18 73 1010.8
20240417221536 10 292 17.7 30.6 0.00 0.23 0.18 75 1010.3
20240417220041 10 294 17.7 45.1 0.00 0.23 0.18 74 1010.2
20240417214534 10 301 14.5 35.4 0.00 0.23 0.18 77 1010.1
20240417213041 10 248 17.7 38.6 0.00 0.23 0.18 77 1009.4
20240417211534 10 294 12.9 37.0 0.00 0.23 0.18 75 1009.2
20240417210043 10 320 12.9 41.8 0.00 0.23 0.18 77 1009.0
20240417204536 9 317 16.1 35.4 0.00 0.99 0.18 78 1008.9
20240417203043 10 325 12.9 38.6 0.00 0.99 0.18 76 1008.4
20240417201542 10 323 16.1 37.0 0.00 0.99 0.18 75 1008.4
20240417200037 10 320 17.7 35.4 0.00 0.99 0.18 76 1008.0
20240417194536 10 327 14.5 33.8 0.00 1.60 0.18 75 1007.9
20240417193039 10 321 12.9 30.6 0.00 1.60 0.18 74 1007.6
20240417191545 9 321 14.5 33.8 0.00 1.60 0.18 76 1007.5
20240417190036 9 333 16.1 35.4 0.00 1.60 0.18 76 1007.3
20240417184541 8 277 16.1 32.2 0.00 2.01 0.18 78 1006.9
20240417183040 8 275 9.7 37.0 0.00 2.01 0.18 82 1006.9
20240417181543 7 286 20.9 37.0 0.00 2.01 0.18 82 1006.7
20240417180036 7 315 22.5 37.0 0.00 2.01 0.18 82 1006.7